Weather in Khoiniki

Belarus     51°53′13″N   29°58′02″E
temp.,
°C
wind,
m/s
gust,
m/s
humid.,
%
clouds,
%
prec.,
mm/h
press.,
hPa
HPBL,
m
14 april, wed
wed1400:00+10sse2384100 0.0 101766
03:00+9se2688100 0.0 1016184
06:00+8ese2690100 0.0 1016227
09:00+9se4886100 0.0 1016571
12:00+12sse486699 0.0 1015939
15:00+13ssw5759100 0.1 10151594
18:00+9ssw2781100 0.0 1015324
21:00+8e2287100 0.0 101517
15 april, thu
thu1500:00+8nne2280100 0.0 101423
03:00+8n2584100 0.1 1014111
06:00+8nne2788100 0.0 1013236
09:00+9n3796100 1.8 1013315
12:00+9n2588100 0.4 1013368
15:00+11nnw227997 0.6 1012499
18:00+11nnw2379100 0.6 1011324
21:00+8ese229576 2.1 101142
16 april, fri
fri1600:00+7e119387 0.0 101110
03:00+7ne2794100 0.1 1011173
06:00+7e399488 0.6 1011329
09:00+10e497819 0.6 1012669
12:00+11e4875100 0.4 1013869
15:00+12ese466490 1.3 10131025
18:00+11ese477494 1.4 1014742
21:00+7ese3889100 1.6 1016364
17 april, sat
sat1700:00+8ene2592100 0.1 1017212
03:00+7ne2693100 0.2 1017213
06:00+7e2695100 0.4 1018220
09:00+9ese358397 0.4 1020619
12:00+12ese3463100 0.1 10201306
15:00+14ese1352100 0.2 10201619
18:00+12nne2367100 0.1 1020140
21:00+9n249488 0.6 1020181
18 april, sun
sun1800:00+9nne2697100 1.0 1020274
03:00+8nne2698100 1.2 1020201
06:00+9ne499351 0.0 1020497
09:00+10ene477873 0.2 10211132
12:00+10ene4871100 0.0 10221269
15:00+11ene4765100 0.0 10231369
18:00+11e5859100 0.0 10231147
21:00+9ene39765 0.0 1024330